AirNav   Everest Fuels
 
 1033 users online  

27FL Adventhealth Wesley Chapel Heliport
Wesley Chapel, Florida, USA

GOING TO WESLEY CHAPEL?


FAA INFORMATION EFFECTIVE 16 JULY 2020

Location

FAA Identifier: 27FL
Lat/Long: 28-11-40.9300N 082-21-01.7000W
28-11.682167N 082-21.028333W
28.1947028,-82.3504722
(estimated)
Elevation: 174 ft. / 53 m (estimated)
Time zone: UTC -4 (UTC -5 during Standard Time)
Zip code: 33543

Heliport Operations

Heliport use: Private use. Permission required prior to landing
Activation date: 04/2013
Control tower: no
ARTCC: MIAMI CENTER
FSS: SAINT PETERSBURG FLIGHT SERVICE STATION
Attendance: CONTINUOUS
Wind indicator: yes
Segmented circle: no

Heliport Communications

WX AWOS-3PT at ZPH (10 nm E): 118.975 (813-780-0031)
WX AWOS-3 at VDF (11 nm S): 121.125 (813-630-0924)
WX AWOS-3 at PCM (15 nm SE): 120.025 (813-764-8259)
WX ASOS at TPA (16 nm SW): PHONE 813-873-7228
WX AWOS-3 at TPF (18 nm S): 118.925 (813-251-6824)
WX ASOS at BKV (18 nm N): 134.725 (352-799-5881)

Nearby radio navigation aids

VOR radial/distance  VOR name  Freq  Var
LALr304/21.8LAKELAND VORTAC116.0001E
PIEr051/24.7ST PETERSBURG VORTAC116.4005W

 
NDB name  Hdg/Dist  Freq  Var  ID
COSME060/11.336805WTP - .--.

Heliport Services

Runway Information

Helipad H1

Dimensions: 61 x 61 ft. / 19 x 19 m
Surface: concrete
Latitude: 28-11.682167N
Longitude: 082-21.028333W
Elevation: 174.0 ft.
Traffic pattern: leftleft

Heliport Ownership and Management from official FAA records

Ownership: Privately-owned
Owner: PASCO-PINELIAS HILLSBOROUGH COMM.
2600 BRUCE B. DOWNS BLVD
WESLEY CHAPEL, FL 33544
Phone (813) 929-5067
Manager: JOHN CROUCH
2600 BRUCE B. DOWNS BLVD
WESLEY CHAPEL, FL 33544
Phone (813) 929-5067
PASCO-PINELIAS HILLSBOROUGH COMMUNITY HEALTH SYSTEM ADDNL CTC: ANGEL LUCAS 813-929-5780 ANGEL.LUCAS@ADVENTHEALTH.COM

Additional Remarks

FOR CD CTC TAMPA APCH AT 813-878-2528

Instrument Procedures

There are no published instrument procedures at 27FL.

Some nearby airports with instrument procedures:

KZPH - Zephyrhills Municipal Airport (10 nm E)
KVDF - Tampa Executive Airport (11 nm S)
KPCM - Plant City Airport (15 nm SE)
KTPA - Tampa International Airport (16 nm SW)
KTPF - Peter O Knight Airport (18 nm S)
KBKV - Brooksville-Tampa Bay Regional Airport (18 nm N)
 
Loc | Ops | Rwys | IFR | FBO | Links
Com | Nav | Svcs | Stats | Notes


 
Aerial photo
No photo
 
Airport distance calculator
Flying to Adventhealth Wesley Chapel Heliport? Find the distance to fly.

From to 27FL

Sunrise and sunset
Times for 11-Aug-2020
 Local
(UTC-4)
 Zulu
(UTC)
Morning civil twilight06:3410:34
Sunrise06:5910:59
Sunset20:1000:10
Evening civil twilight20:3500:35

Current date and time
Zulu (UTC)  12-Aug-2020 01:03:44
Local (UTC-4)  11-Aug-2020 21:03:44
 
METAR
KZPH 
10nm E 
120055Z AUTO 00000KT 10SM CLR 24/21 A3002 RMK A02 T02430215
KVDF 
11nm S 
120055Z AUTO RMK AO2 PWINO
KPCM 
15nm SE 
120055Z AUTO 00000KT 10SM CLR 24/24 A3004 RMK AO2
KTPA 
17nm SW 
120053Z 11004KT 10SM FEW034 BKN130 BKN220 27/21 A3002 RMK AO2 RAE2356 SLP163 TCU DSNT SW P0000 T02720211 $
KBKV 
17nm N 
120053Z 00000KT 10SM CLR 26/22 A3002 RMK AO2 SLP163 T02560222
KTPF 
18nm S 
120055Z AUTO 11003KT 10SM BKN100 26/25 A3002 RMK AO2
TAF
KTPA 
17nm SW 
112101Z 1121/1224 32007KT P6SM VCTS SCT040CB SCT100 BKN120 FM120200 VRB03KT P6SM FEW040 BKN250 FM121600 26006KT P6SM VCTS SCT035CB BKN060 FM122000 29007KT P6SM VCTS SCT035CB SCT080 BKN250
NOTAMs
Click for the latest NOTAMs
NOTAMs are issued by the DoD/FAA and will open in a separate window not controlled by AirNav.

 

 
 

Would you like to see your business listed on this page?

 If your business provides an interesting product or service to pilots, flight crews, aircraft, or users of the Adventhealth Wesley Chapel Heliport, you should consider listing it here.  To start the listing process, click on the button below
 
Add a business
 

Other Pages about Adventhealth Wesley Chapel Heliport

Update a link
 
Copyright © AirNav, LLC. All rights reserved. Privacy Policy  Contact